Flag for Germany Weather past 2 weeks in Uelzen, Lower Saxony, Germany

Now
54 °F

Broken clouds.


Feels Like: 53 °F
Forecast: 49 / 61 °F
Wind: 3 mph from Southwest

Location: Fassberg

Current Time: Sep 3, 2015 at 11:47:48 AM

Latest Report: Sep 3, 2015 at 11:20 AM


Visibility: 6 mi

Pressure: 29.95 "Hg

Humidity: 94%

Dew point: 52 °F

Location of UelzenLocation

Historic Weather in Uelzen — Graph

°F

Uelzen temperature yesterday

Maximum temperature yesterday: 66 °F (at 3:20 PM)
Minimum temperature yesterday: 50 °F (at 5:20 AM)
Average temperature yesterday: 58 °F

Past Weeks' High & Low Weather Summary

 TemperatureHumidityPressure
High84 °F (Aug 31, 3:20 PM)100% (Aug 19, 11:20 PM)30.30 "Hg (Aug 19, 11:20 PM)
Low43 °F (Sep 3, 5:20 AM)34% (Aug 22, 5:20 PM)29.62 "Hg (Aug 24, 6:20 PM)
Average63 °F78%29.99 "Hg
* Reported Aug 19 10:20 AM — Sep 3 10:20 AM, Uelzen, Weather by CustomWeather, © 2015

Note: Actual official high and low records may vary slightly from our data, if they occured in-between our weather recording intervals... More about our weather records

Advertising

Uelzen weather history for previous 24 hours

 ConditionsComfort  
Time TempWeatherWind HumidityBarometerVisibility
10:20 AM
Thu, Sep 3
54 °FDrizzle. Partly sunny.3 mph88%29.95 "Hg4 mi
10:01 AM54 °FDrizzle. Fog.5 mph88%29.95 "Hg3 mi
9:20 AM52 °FPartly sunny.2 mph88%29.95 "Hg4 mi
8:20 AM50 °FBroken clouds.1 mph94%29.95 "Hg6 mi
7:20 AM46 °FPartly cloudy.2 mph93%29.95 "Hg6 mi
6:20 AM45 °FFog.1 mph93%29.95 "Hg5 mi
5:20 AM43 °FFog.No wind100%29.95 "HgN/A
4:20 AM45 °FFog.No wind93%29.95 "HgN/A
3:20 AM45 °FFog.1 mph93%29.95 "HgN/A
2:20 AM46 °FFog.2 mph93%29.95 "HgN/A
1:20 AM48 °FPassing clouds.No wind100%29.95 "HgN/A
12:20 AM50 °FPassing clouds.2 mph88%29.98 "HgN/A
12:00 AM52 °FPassing clouds.1 mph88%29.98 "HgN/A
11:20 PM
Wed, Sep 2
54 °FPassing clouds.5 mph82%29.98 "HgN/A
10:20 PM55 °FPassing clouds.6 mph82%29.98 "HgN/A
9:20 PM59 °FPassing clouds.5 mph72%29.98 "HgN/A
8:20 PM61 °FPartly sunny.5 mph68%29.98 "HgN/A
7:20 PM63 °FPartly sunny.5 mph64%29.95 "HgN/A
6:20 PM63 °FPartly sunny.8 mph59%29.95 "HgN/A
5:20 PM64 °FBroken clouds.15 mph52%29.95 "HgN/A
4:20 PM64 °FBroken clouds.9 mph56%29.95 "HgN/A
3:20 PM66 °FScattered clouds.15 mph56%29.98 "HgN/A
2:20 PM64 °FBroken clouds.17 mph56%29.98 "HgN/A
1:20 PM63 °FScattered clouds.14 mph64%29.98 "HgN/A
12:20 PM63 °FPartly sunny.16 mph64%29.98 "HgN/A
11:20 AM61 °FScattered clouds.16 mph72%29.98 "HgN/A
Weather by CustomWeather, © 2015

See weather overviewHow to use our weather pages